Indianapolis Mount Comfort, IN

6:42 PM EDT on July 20, 2019 (GMT -0400)
Mount Comfort

Weather History for KMQJ - May, 2019

Change the Weather History Date:

Friday, May 17, 2019

  Actual Average (KEYE) Record (KEYE)
Temperature  
Mean Temperature 70 °F -  
Max Temperature 80 °F 69 °F 84 °F (1998)
Min Temperature 60 °F 51 °F 42 °F (2002)
Cooling Degree Days 5    
Growing Degree Days 20 (Base 50)    
Moisture  
Dew Point 67 °F    
Average Humidity 90    
Maximum Humidity 100    
Minimum Humidity 69    
Precipitation  
Precipitation 0.00 in - - ()
Sea Level Pressure  
Sea Level Pressure 29.85 in    
Wind  
Wind Speed 9 mph (WSW)    
Max Wind Speed 16 mph    
Max Gust Speed 21 mph    
Visibility 10 miles    
Events      
Averages and records for this station are not official NWS values.
T = Trace of Precipitation, MM = Missing Value Source: NWS Daily Summary

Daily Weather History Graph

Daily Weather History Graph

Search for Another Location

Airport or City:

Astronomy

May. 17, 2019 Rise Set
Actual Time 6:27 AM EDT 8:53 PM EDT
Civil Twilight 5:56 AM EDT 9:24 PM EDT
Nautical Twilight 5:18 AM EDT 10:02 PM EDT
Astronomical Twilight 4:36 AM EDT 10:44 PM EDT
Moon 7:40 PM EDT (5/17) 5:57 AM EDT (5/17)
Length of Visible Light 15h 27m
Length of Day
14h 26m
Waxing Gibbous, 98% of the Moon is Illuminated
May 17
Waxing Gibbous
May 18
Full
May 26
Last Quarter
Jun 3
New
Jun 10
First Quarter

Hourly Weather History & Observations

Time (EDT) Temp. Heat Index Dew Point Humidity Pressure Visibility Wind Dir Wind Speed Gust Speed Precip Events Conditions
12:15 AM 62.6 °F - 62.6 °F 100% 29.76 in 10.0 mi South 15.0 mph - N/A   Clear
12:35 AM 62.6 °F - 62.6 °F 100% 29.77 in 10.0 mi South 12.7 mph - N/A   Clear
12:55 AM 62.6 °F - 62.6 °F 100% 29.78 in 10.0 mi South 12.7 mph - N/A   Clear
1:15 AM 62.6 °F - 62.6 °F 100% 29.79 in 10.0 mi South 13.8 mph 19.6 mph N/A   Clear
1:35 AM 62.6 °F - 62.6 °F 100% 29.78 in 10.0 mi South 11.5 mph - N/A   Clear
1:55 AM 62.6 °F - 62.6 °F 100% 29.78 in 10.0 mi SSW 13.8 mph 19.6 mph N/A   Clear
2:15 AM 62.6 °F - 62.6 °F 100% 29.78 in 10.0 mi SSW 12.7 mph 20.7 mph N/A   Clear
2:35 AM 62.6 °F - 62.6 °F 100% 29.79 in 10.0 mi SSW 9.2 mph - N/A   Clear
2:55 AM 60.8 °F - 60.8 °F 100% 29.78 in 10.0 mi SSW 10.4 mph - N/A   Clear
3:15 AM 62.6 °F - 62.6 °F 100% 29.78 in 10.0 mi SSW 8.1 mph - N/A   Clear
3:35 AM 60.8 °F - 60.8 °F 100% 29.77 in 10.0 mi South 9.2 mph - N/A   Clear
3:55 AM 60.8 °F - 60.8 °F 100% 29.78 in 10.0 mi South 6.9 mph - N/A   Scattered Clouds
4:15 AM 62.6 °F - 62.6 °F 100% 29.79 in 10.0 mi SSW 6.9 mph - N/A   Mostly Cloudy
4:35 AM 62.6 °F - 62.6 °F 100% 29.80 in 10.0 mi SW 5.8 mph - N/A   Scattered Clouds
4:55 AM 62.6 °F - 62.6 °F 100% 29.80 in 10.0 mi SW 4.6 mph - N/A   Clear
5:15 AM 62.6 °F - 62.6 °F 100% 29.80 in 10.0 mi SW 3.5 mph - N/A   Clear
5:35 AM 62.6 °F - 62.6 °F 100% 29.80 in 10.0 mi SW 4.6 mph - N/A   Scattered Clouds
5:56 AM 64.4 °F - 64.4 °F 100% 29.81 in 10.0 mi SW 5.8 mph - N/A   Scattered Clouds
6:15 AM 64.4 °F - 64.4 °F 100% 29.82 in 10.0 mi WSW 10.4 mph - N/A   Scattered Clouds
6:35 AM 66.2 °F - 66.2 °F 100% 29.82 in 10.0 mi WSW 8.1 mph - N/A   Scattered Clouds
6:55 AM 66.2 °F - 66.2 °F 100% 29.82 in 10.0 mi SW 6.9 mph - N/A   Clear
7:15 AM 66.2 °F - 66.2 °F 100% 29.82 in 10.0 mi WSW 6.9 mph - N/A   Clear
7:35 AM 66.2 °F - 66.2 °F 100% 29.83 in 10.0 mi SW 6.9 mph - N/A   Scattered Clouds
7:55 AM 66.2 °F - 66.2 °F 100% 29.84 in 10.0 mi WSW 4.6 mph - N/A   Clear
8:16 AM 66.2 °F - 66.2 °F 100% 29.85 in 10.0 mi West 8.1 mph - N/A   Clear
8:35 AM 68.0 °F - 68.0 °F 100% 29.85 in 10.0 mi WSW 5.8 mph - N/A   Clear
8:55 AM 68.0 °F - 68.0 °F 100% 29.85 in 10.0 mi WSW 4.6 mph - N/A   Clear
9:15 AM 68.0 °F - 68.0 °F 100% 29.85 in 10.0 mi WSW 3.5 mph - N/A   Clear
9:35 AM 71.6 °F - 69.8 °F 94% 29.85 in 10.0 mi WSW 6.9 mph - N/A   Clear
9:56 AM 71.6 °F - 68.0 °F 88% 29.85 in 10.0 mi WSW 5.8 mph - N/A   Clear
10:15 AM 71.6 °F - 68.0 °F 88% 29.86 in 10.0 mi WSW 5.8 mph - N/A   Clear
10:35 AM 73.4 °F - 68.0 °F 83% 29.87 in 10.0 mi WSW 8.1 mph - N/A   Scattered Clouds
10:55 AM 73.4 °F - 68.0 °F 83% 29.88 in 10.0 mi WSW 8.1 mph - N/A   Scattered Clouds
11:15 AM 73.4 °F - 68.0 °F 83% 29.88 in 10.0 mi WSW 6.9 mph - N/A   Clear
11:35 AM 73.4 °F - 68.0 °F 83% 29.88 in 10.0 mi WSW 8.1 mph - N/A   Clear
11:55 AM 75.2 °F - 68.0 °F 78% 29.88 in 10.0 mi WSW 8.1 mph - N/A   Clear
12:15 PM 77.0 °F - 68.0 °F 74% 29.88 in 10.0 mi West 11.5 mph - N/A   Clear
12:35 PM 75.2 °F - 66.2 °F 73% 29.89 in 10.0 mi WNW 9.2 mph - N/A   Clear
12:55 PM 75.2 °F - 68.0 °F 78% 29.89 in 10.0 mi WNW 9.2 mph - N/A   Clear
1:15 PM 75.2 °F - 68.0 °F 78% 29.90 in 10.0 mi West 8.1 mph - N/A   Scattered Clouds
1:35 PM 75.2 °F - 66.2 °F 73% 29.90 in 10.0 mi NW 6.9 mph 19.6 mph N/A   Mostly Cloudy
1:55 PM 77.0 °F - 68.0 °F 74% 29.90 in 10.0 mi NW 10.4 mph - N/A   Scattered Clouds
2:15 PM 78.8 °F - 68.0 °F 69% 29.90 in 10.0 mi NNW 16.1 mph 19.6 mph N/A   Clear
2:36 PM 77.0 °F - 68.0 °F 74% 29.90 in 10.0 mi NW 9.2 mph - N/A   Clear
2:55 PM 78.8 °F - 69.8 °F 74% 29.90 in 10.0 mi NNW 9.2 mph 18.4 mph N/A   Clear
3:15 PM 77.0 °F - 69.8 °F 78% 29.90 in 10.0 mi NW 9.2 mph - N/A   Scattered Clouds
3:35 PM 78.8 °F - 69.8 °F 74% 29.90 in 10.0 mi NW 4.6 mph - N/A   Scattered Clouds
3:55 PM 78.8 °F - 69.8 °F 74% 29.89 in 10.0 mi NW 11.5 mph - N/A   Clear
4:15 PM 78.8 °F - 69.8 °F 74% 29.89 in 10.0 mi NNW 10.4 mph - N/A   Clear
4:35 PM 80.6 °F 83.9 °F 69.8 °F 70% 29.89 in 10.0 mi North 8.1 mph - N/A   Clear
4:55 PM 80.6 °F 83.9 °F 69.8 °F 70% 29.89 in 10.0 mi North 8.1 mph - N/A   Clear
5:15 PM 78.8 °F - 69.8 °F 74% 29.88 in 10.0 mi North 6.9 mph - N/A   Clear
5:35 PM 78.8 °F - 69.8 °F 74% 29.88 in 10.0 mi NNE 5.8 mph - N/A   Clear
5:55 PM 78.8 °F - 69.8 °F 74% 29.88 in 10.0 mi NNE 6.9 mph - N/A   Scattered Clouds
6:15 PM 77.0 °F - 69.8 °F 78% 29.88 in 10.0 mi North 3.5 mph - N/A   Scattered Clouds
6:35 PM 77.0 °F - 69.8 °F 78% 29.87 in 10.0 mi Calm Calm - N/A   Scattered Clouds
6:55 PM 77.0 °F - 69.8 °F 78% 29.87 in 10.0 mi Calm Calm - N/A   Clear
7:15 PM 77.0 °F - 69.8 °F 78% 29.87 in 10.0 mi Calm Calm - N/A   Scattered Clouds
7:35 PM 77.0 °F - 69.8 °F 78% 29.88 in 10.0 mi Calm Calm - N/A   Mostly Cloudy
7:55 PM 75.2 °F - 71.6 °F 89% 29.88 in 10.0 mi Calm Calm - N/A   Scattered Clouds
8:15 PM 75.2 °F - 71.6 °F 89% 29.88 in 10.0 mi Calm Calm - N/A   Clear
8:35 PM 73.4 °F - 71.6 °F 94% 29.89 in 10.0 mi ENE 3.5 mph - N/A   Scattered Clouds
8:55 PM 73.4 °F - 71.6 °F 94% 29.89 in 10.0 mi East 4.6 mph - N/A   Scattered Clouds
9:15 PM 71.6 °F - 69.8 °F 94% 29.89 in 10.0 mi East 4.6 mph - N/A   Clear
9:35 PM 68.0 °F - 68.0 °F 100% 29.89 in 10.0 mi East 4.6 mph - N/A   Clear
9:56 PM 68.0 °F - 68.0 °F 100% 29.89 in 10.0 mi East 5.8 mph - N/A   Clear
10:15 PM 68.0 °F - 68.0 °F 100% 29.89 in 10.0 mi East 3.5 mph - N/A   Clear
10:35 PM 68.0 °F - 68.0 °F 100% 29.90 in 10.0 mi ENE 3.5 mph - N/A   Clear
10:55 PM 66.2 °F - 66.2 °F 100% 29.90 in 10.0 mi Calm Calm - N/A   Clear
11:15 PM 66.2 °F - 66.2 °F 100% 29.90 in 10.0 mi Calm Calm - N/A   Clear
11:35 PM 66.2 °F - 66.2 °F 100% 29.90 in 10.0 mi Calm Calm - N/A   Clear
11:55 PM 66.2 °F - 66.2 °F 100% 29.91 in 10.0 mi Calm Calm - N/A   Clear